New Richmond, WI

9:14 PM CST on December 03, 2016 (GMT -0600)
New Richmond Municipal

Weather History for KRNH - January, 2014

Change the Weather History Date:

Thursday, January 30, 2014

  Actual Average (KMSP) Record (KMSP)
Temperature  
Mean Temperature 11 °F 16 °F  
Max Temperature 27 °F 25 °F 48 °F (1989)
Min Temperature -5 °F 8 °F -30 °F (1887)
Degree Days  
Heating Degree Days 54 49  
Month to date heating degree days 1486  
Since 1 July heating degree days 4509  
Cooling Degree Days 0 0  
Month to date cooling degree days 0  
Year to date cooling degree days 0  
Moisture  
Dew Point 8 °F    
Average Humidity 76    
Maximum Humidity 100    
Minimum Humidity 58    
Precipitation  
Precipitation 0.00 in 0.02 in 0.49 in (1878)
Month to date precipitation 0.87  
Year to date precipitation 0.87  
Snow  
Snow 0.00 in 0.40 in 6.40 in (2014)
Month to date snowfall 11.9  
Since 1 July snowfall 33.7  
Snow Depth -    
Sea Level Pressure  
Sea Level Pressure 29.66 in    
Wind  
Wind Speed 7 mph (NNW)    
Max Wind Speed 20 mph    
Max Gust Speed 25 mph    
Visibility 6 miles    
Events Snow    
T = Trace of Precipitation, MM = Missing Value Source: NWS Daily Summary

Daily Weather History Graph

Daily Weather History Graph

Search for Another Location

Airport or City:

Trip Planner

Search our weather history database for the weather conditions in past years. The results will help you decide how hot, cold, wet, or windy it might be!

Date:

Astronomy

Jan. 30, 2014 Rise Set
Actual Time 7:32 AM CST 5:14 PM CST
Civil Twilight 7:00 AM CST 5:46 PM CST
Nautical Twilight 6:25 AM CST 6:21 PM CST
Astronomical Twilight 5:51 AM CST 6:56 PM CST
Moon 6:56 AM CST (1/30) 5:30 PM CST (1/30)
Length of Visible Light 10h 45m
Length of Day
9h 42m
Waning Crescent, 0% of the Moon is Illuminated
Jan 30
Waning Crescent
Jan 30
New
Feb 6
First Quarter
Feb 14
Full
Feb 22
Last Quarter

Hourly Weather History & Observations

Time (CST) Temp. Windchill Dew Point Humidity Pressure Visibility Wind Dir Wind Speed Gust Speed Precip Events Conditions
12:15 AM 25.5 °F - 15.6 °F 66% 29.55 in 10.0 mi Calm Calm - N/A   Mostly Cloudy
12:35 AM 25.2 °F 20.9 °F 15.8 °F 68% 29.55 in 10.0 mi South 3.5 mph - N/A   Overcast
12:55 AM 25.3 °F - 16.2 °F 68% 29.54 in 10.0 mi Calm Calm - N/A   Overcast
1:15 AM 23.4 °F - 16.3 °F 75% 29.54 in 10.0 mi Calm Calm - N/A   Overcast
1:35 AM 25.5 °F - 16.7 °F 69% 29.54 in 10.0 mi Calm Calm - N/A   Overcast
1:55 AM 26.1 °F - 16.7 °F 68% 29.53 in 10.0 mi Calm Calm - N/A   Overcast
2:15 AM 27.0 °F 21.6 °F 16.7 °F 65% 29.52 in 10.0 mi South 4.6 mph - N/A   Overcast
2:35 AM 26.8 °F - 17.6 °F 68% 29.52 in 10.0 mi Calm Calm - N/A   Overcast
2:55 AM 27.3 °F - 17.6 °F 67% 29.52 in 10.0 mi Calm Calm - N/A   Overcast
3:15 AM 27.3 °F 23.4 °F 17.6 °F 67% 29.52 in 10.0 mi SE 3.5 mph - N/A   Overcast
3:35 AM 26.4 °F 22.4 °F 18.3 °F 71% 29.51 in 10.0 mi East 3.5 mph - N/A   Overcast
3:55 AM 25.7 °F 21.5 °F 19.2 °F 76% 29.51 in 5.0 mi ESE 3.5 mph - N/A Snow Light Snow
4:15 AM 24.8 °F 20.5 °F 20.8 °F 85% 29.50 in 2.5 mi ESE 3.5 mph - N/A Snow Light Snow
4:35 AM 24.3 °F - 22.6 °F 94% 29.50 in 1.2 mi Calm Calm - N/A Snow Light Snow
4:55 AM 23.9 °F - 23.7 °F 99% 29.50 in 1.5 mi Calm Calm - N/A Snow Light Snow
5:15 AM 23.9 °F 19.5 °F 23.9 °F 100% 29.50 in 0.8 mi SSE 3.5 mph - N/A Snow Snow
5:35 AM 24.1 °F 18.2 °F 24.1 °F 100% 29.49 in 1.2 mi SE 4.6 mph - N/A Snow Light Snow
5:55 AM 23.9 °F 19.5 °F 23.9 °F 100% 29.47 in 1.5 mi East 3.5 mph - N/A Snow Light Snow
6:15 AM 23.9 °F 16.8 °F 23.9 °F 100% 29.47 in 1.2 mi NE 5.8 mph - N/A Snow Light Snow
6:35 AM 23.9 °F 16.8 °F 23.9 °F 100% 29.48 in 1.5 mi NNE 5.8 mph - N/A Snow Light Snow
6:55 AM 23.4 °F 15.2 °F 23.4 °F 100% 29.50 in 0.8 mi NNE 6.9 mph - N/A Snow Snow
7:15 AM 22.6 °F 12.6 °F 22.6 °F 100% 29.50 in 0.8 mi NNE 9.2 mph - N/A Snow Snow
7:35 AM 21.9 °F 9.8 °F 21.7 °F 99% 29.50 in 0.8 mi NNE 12.7 mph - N/A Snow Snow
7:55 AM 21.2 °F 8.3 °F 21.0 °F 99% 29.49 in 0.5 mi NNE 13.8 mph - N/A Snow Snow
8:15 AM 20.7 °F 8.2 °F 20.3 °F 99% 29.50 in 0.5 mi NNE 12.7 mph - N/A Snow Snow
8:35 AM 20.3 °F 6.1 °F 19.4 °F 96% 29.50 in 0.5 mi NNE 16.1 mph - N/A Snow Snow
8:55 AM 19.4 °F 5.5 °F 18.9 °F 98% 29.51 in 0.2 mi North 15.0 mph - N/A Snow Snow
9:15 AM 18.3 °F 3.6 °F 17.1 °F 95% 29.52 in 0.5 mi NNE 16.1 mph 19.6 mph N/A Snow Snow
9:35 AM 16.9 °F 2.3 °F 15.6 °F 95% 29.53 in 0.2 mi North 15.0 mph - N/A Snow Snow
9:55 AM 16.7 °F 1.0 °F 15.4 °F 95% 29.54 in 0.5 mi North 17.3 mph - N/A Snow Snow
10:15 AM 16.5 °F 0.8 °F 14.9 °F 93% 29.55 in 0.5 mi North 17.3 mph 24.2 mph N/A Snow Light Snow
10:35 AM 15.8 °F 0.9 °F 13.6 °F 91% 29.56 in 0.8 mi North 15.0 mph 25.3 mph N/A Snow Light Snow
10:55 AM 15.6 °F 0.1 °F 13.3 °F 90% 29.57 in 1.2 mi North 16.1 mph 21.9 mph N/A Snow Light Snow
11:15 AM 15.3 °F -0.9 °F 11.3 °F 84% 29.58 in 1.5 mi North 17.3 mph 24.2 mph N/A Snow Light Snow
11:35 AM 15.3 °F -0.4 °F 10.9 °F 83% 29.59 in 1.8 mi NNW 16.1 mph - N/A Snow Light Snow
11:55 AM 16.2 °F 0.8 °F 10.9 °F 80% 29.59 in 2.0 mi North 16.1 mph 19.6 mph N/A   Haze
12:15 PM 16.5 °F -0.1 °F 10.9 °F 79% 29.59 in 2.0 mi NNW 19.6 mph - N/A Snow Light Snow
12:35 PM 16.5 °F 2.4 °F 10.4 °F 77% 29.61 in 2.0 mi NNW 13.8 mph - N/A Snow Light Snow
12:55 PM 16.7 °F 2.0 °F 11.1 °F 79% 29.62 in 2.5 mi NNW 15.0 mph - N/A Snow Light Snow
1:15 PM 16.7 °F 3.8 °F 9.9 °F 74% 29.62 in 7.0 mi NNW 11.5 mph - N/A Snow Light Snow
1:35 PM 16.3 °F 0.5 °F 8.2 °F 70% 29.62 in 10.0 mi NNW 17.3 mph 24.2 mph N/A   Overcast
1:55 PM 16.7 °F 0.5 °F 6.3 °F 64% 29.64 in 10.0 mi NW 18.4 mph 24.2 mph N/A   Overcast
2:15 PM 16.7 °F 1.5 °F 6.3 °F 64% 29.65 in 5.0 mi NNW 16.1 mph 24.2 mph N/A   Haze
2:35 PM 16.7 °F 0.1 °F 5.7 °F 62% 29.67 in 2.0 mi NW 19.6 mph 24.2 mph N/A   Haze
2:55 PM 16.5 °F 0.8 °F 5.2 °F 61% 29.68 in 5.0 mi NW 17.3 mph - N/A   Haze
3:15 PM 16.5 °F 0.3 °F 5.0 °F 61% 29.70 in 7.0 mi NW 18.4 mph - N/A   Clear
3:35 PM 15.4 °F -0.6 °F 4.1 °F 61% 29.71 in 10.0 mi NW 17.3 mph 23.0 mph N/A   Clear
3:55 PM 15.1 °F 1.8 °F 3.2 °F 59% 29.73 in 10.0 mi NW 11.5 mph 18.4 mph N/A   Clear
4:15 PM 14.5 °F -1.3 °F 2.3 °F 58% 29.74 in 10.0 mi NW 16.1 mph 21.9 mph N/A   Clear
4:35 PM 13.1 °F -2.0 °F 1.0 °F 59% 29.75 in 10.0 mi NW 13.8 mph 19.6 mph N/A   Clear
4:55 PM 12.2 °F -2.5 °F 0.3 °F 59% 29.77 in 10.0 mi NW 12.7 mph 18.4 mph N/A   Clear
5:15 PM 11.3 °F -2.2 °F -0.4 °F 59% 29.77 in 10.0 mi NW 10.4 mph - N/A   Clear
5:35 PM 10.2 °F -3.5 °F -0.8 °F 61% 29.79 in 10.0 mi NW 10.4 mph - N/A   Clear
5:55 PM 7.9 °F -8.0 °F -1.5 °F 66% 29.80 in 10.0 mi WNW 12.7 mph - N/A   Clear
6:15 PM 9.3 °F -5.4 °F -0.8 °F 64% 29.82 in 10.0 mi WNW 11.5 mph - N/A   Clear
6:35 PM 8.6 °F -7.0 °F -1.5 °F 64% 29.83 in 10.0 mi WNW 12.7 mph - N/A   Clear
6:55 PM 7.0 °F -6.6 °F -2.9 °F 64% 29.84 in 10.0 mi WNW 9.2 mph - N/A   Clear
7:15 PM 6.4 °F -7.3 °F -3.3 °F 64% 29.85 in 10.0 mi West 9.2 mph - N/A   Clear
7:35 PM 5.9 °F -11.2 °F -4.0 °F 64% 29.86 in 10.0 mi WNW 13.8 mph 18.4 mph N/A   Clear
7:55 PM 4.5 °F -9.8 °F -4.9 °F 65% 29.87 in 10.0 mi WNW 9.2 mph - N/A   Clear
8:15 PM 3.6 °F -13.4 °F -5.6 °F 66% 29.90 in 10.0 mi West 12.7 mph - N/A   Clear
8:35 PM 3.0 °F -15.5 °F -6.0 °F 66% 29.91 in 10.0 mi WNW 15.0 mph - N/A   Clear
8:55 PM 2.3 °F -13.4 °F -6.7 °F 66% 29.92 in 10.0 mi WNW 10.4 mph - N/A   Clear
9:15 PM 0.9 °F -15.1 °F -8.0 °F 66% 29.94 in 10.0 mi WNW 10.4 mph - N/A   Clear
9:35 PM -0.0 °F -14.2 °F -9.2 °F 65% 29.94 in 10.0 mi WNW 8.1 mph - N/A   Clear
9:55 PM -1.3 °F -18.7 °F -10.1 °F 66% 29.95 in 10.0 mi WNW 11.5 mph - N/A   Clear
10:15 PM -2.4 °F -20.1 °F -11.2 °F 66% 29.97 in 10.0 mi WNW 11.5 mph - N/A   Clear
10:35 PM -2.7 °F -17.5 °F -12.1 °F 64% 29.98 in 10.0 mi WNW 8.1 mph - N/A   Clear
10:55 PM -3.3 °F -20.3 °F -12.5 °F 65% 29.99 in 10.0 mi West 10.4 mph - N/A   Clear
11:15 PM -4.4 °F -20.6 °F -13.4 °F 65% 30.00 in 10.0 mi West 9.2 mph - N/A   Clear
11:35 PM -5.3 °F -20.6 °F -14.1 °F 66% 30.00 in 10.0 mi WNW 8.1 mph - N/A   Clear
11:55 PM -5.1 °F -20.4 °F -13.9 °F 66% 30.01 in 10.0 mi WNW 8.1 mph - N/A   Clear